Regional Weather Roundup
Issued by NWS New Orleans/Baton Rouge, LA

Home | Current Version | Previous Version | Text Only | Print | Product List | Glossary On
Versions: 1 2 3 4 5 6 7 8 9 10 11 12 13 14 15 16 17 18 19 20 21 22 23 24 25 26 27
000
ASUS44 KLIX 191313
RWRLIX
NEW ORLEANS REGIONAL WEATHER ROUNDUP
NATIONAL WEATHER SERVICE NEW ORLEANS LA
800 AM CDT SAT AUG 19 2017

NOTE: "FAIR" INDICATES FEW OR NO CLOUDS BELOW 12,000 FEET WITH NO
      SIGNIFICANT WEATHER AND/OR OBSTRUCTIONS TO VISIBILITY.
      SKY/WX - SKY CONDITION AND SIGNIFICANT WEATHER.
      TMP - AIR TEMPERATURE.     DP    - DEWPOINT TEMPERATURE.
      RH  - RELATIVE HUMIDITY.   PRES  - PRESSURE.
      HI  - HEAT INDEX.          WCI   - WIND CHILL INDEX.

*  THESE STATIONS ARE NOT NWS OR FAA STATIONS AND ARE NOT UNDER
   NWS QUALITY CONTROL.

LAZ038-040-048-061>063-065>067-069-191400-
SOUTHEAST LOUISIANA

CITY           SKY/WX    TMP DP  RH WIND       PRES   REMARKS
N.O. INTL ARPT MOSUNNY   82  78  88 W8        30.00F
N.O. LAKEFRONT SUNNY     86  77  74 NW10      30.00S HX  97
N.O. DOWNTOWN*   N/A     84  77  79 CALM      30.01F
RESERVE*         N/A     82  78  87 W5        30.01S
SLIDELL        SUNNY     81  76  84 VRB3      29.99S
BATON ROUGE    SUNNY     82  78  88 W3        30.01R
BOOTHVILLE     CLOUDY    83  76  79 NW7       30.00S
BELLE CHASSE   NOT AVBL
BOGALUSA*        N/A     79  74  86 CALM      30.02S
GALLIANO*      SUNNY     81  76  85 NW6       30.01S
NEW ROADS*       N/A     79  77  95 CALM      30.02R
GONZALES*        N/A     80  77  90 CALM      30.01S
HAMMOND*       SUNNY     79  73  83 CALM      30.00F
HOUMA*         SUNNY     81  79  94 CALM      30.01F
PORT FOURCHON* SUNNY     86  77  74 NW10      30.00S HX  97

$$

MSZ070-080>082-191400-
SOUTHERN MISSISSIPPI

CITY           SKY/WX    TMP DP  RH WIND       PRES   REMARKS
MCCOMB         SUNNY     79  75  87 NW3       30.02R
GULFPORT       SUNNY     80  78  94 NW3       29.99R
BILOXI         SUNNY     81  77  88 CALM      29.99R
PASCAGOULA     SUNNY     78  73  84 CALM      30.00R
STENNIS ARPT*  SUNNY     79  77  94 CALM      30.00R

$$

COASTAL OBSERVATIONS
LAKE AND NEARSHORE STATIONS

STATION/POSITION TIME  TEMP    WIND        PRES    WAVE
                       AIR SEA DIR/SP/G            HT/PER
                 (UTC) (F)     (DEG/KT/KT) (MB)    (FT/S)
PASCAGOULA       1248   80     360/  4/  6 1015.1
WAVELAND YACHT   1248   81 86  300/  7/ 10 1015.5
GRAND ISLE       1248   85 89  330/ 13/ 13 1016.0
SOUTHWEST PASS   1248   84     320/  9/ 10   N/A
NEW CANAL        1248   84 87  270/  5/  8 1015.9
SHELL BEACH      1248   83 90  270/  7/  9 1015.8

OFFSHORE STATIONS

STATION/POSITION TIME  TEMP    WIND        PRES    WAVE
                       AIR SEA DIR/SP/G            HT/PER
                 (UTC) (F)     (DEG/KT/KT) (MB)    (FT/S)
64 S DAUPHIN ISL 1250   85 88  300/ 12/ 14 1015.8    2/ 3

$$





USA.gov is the U.S. government's official web portal to all federal, state and local government web resources and services.